TimeEDT,TemperatureF,Dew PointF,Humidity,Sea Level PressureIn,VisibilityMPH,Wind Direction,Wind SpeedMPH,Gust SpeedMPH,PrecipitationIn,Events,Conditions,WindDirDegrees,DateUTC
12:15 AM,51.8,35.6,54,29.55,10.0,West,12.7,17.3,N/A,,Clear,260,2012-10-30 04:15:00
12:35 AM,51.8,35.6,54,29.55,10.0,WSW,6.9,16.1,N/A,,Clear,250,2012-10-30 04:35:00
12:55 AM,51.8,35.6,54,29.54,10.0,WSW,6.9,-,N/A,,Clear,240,2012-10-30 04:55:00
1:15 AM,51.8,35.6,54,29.54,10.0,WSW,6.9,-,N/A,,Clear,250,2012-10-30 05:15:00
1:35 AM,50.0,35.6,58,29.53,10.0,SW,4.6,-,N/A,,Clear,230,2012-10-30 05:35:00
1:55 AM,50.0,35.6,58,29.53,10.0,SW,5.8,-,N/A,,Clear,230,2012-10-30 05:55:00
2:15 AM,50.0,35.6,58,29.52,10.0,SW,4.6,-,N/A,,Clear,230,2012-10-30 06:15:00
2:35 AM,50.0,37.4,62,29.52,10.0,SW,6.9,-,N/A,,Clear,230,2012-10-30 06:35:00
2:55 AM,50.0,35.6,58,29.52,10.0,SSW,4.6,-,N/A,,Clear,210,2012-10-30 06:55:00
3:15 AM,50.0,35.6,58,29.51,10.0,SW,4.6,-,N/A,,Clear,230,2012-10-30 07:15:00
3:35 AM,50.0,37.4,62,29.51,10.0,WSW,5.8,-,N/A,,Clear,240,2012-10-30 07:35:00
3:55 AM,50.0,37.4,62,29.51,10.0,SW,8.1,-,N/A,,Clear,230,2012-10-30 07:55:00
4:35 AM,50.0,37.4,62,29.50,10.0,WSW,6.9,-,N/A,,Clear,240,2012-10-30 08:35:00
4:55 AM,50.0,37.4,62,29.50,10.0,WSW,6.9,-,N/A,,Clear,250,2012-10-30 08:55:00
5:15 AM,50.0,37.4,62,29.50,10.0,WSW,8.1,-,N/A,,Clear,240,2012-10-30 09:15:00
5:35 AM,50.0,35.6,58,29.51,10.0,WSW,6.9,-,N/A,,Clear,240,2012-10-30 09:35:00
5:55 AM,50.0,37.4,62,29.51,10.0,WSW,5.8,-,N/A,,Clear,240,2012-10-30 09:55:00
6:15 AM,50.0,37.4,62,29.52,10.0,WSW,5.8,-,N/A,,Clear,240,2012-10-30 10:15:00
6:35 AM,50.0,37.4,62,29.52,10.0,WSW,4.6,-,N/A,,Clear,250,2012-10-30 10:35:00
6:55 AM,48.2,37.4,66,29.53,10.0,SW,4.6,-,N/A,,Clear,230,2012-10-30 10:55:00
7:15 AM,48.2,35.6,62,29.53,10.0,SW,4.6,-,N/A,,Clear,230,2012-10-30 11:15:00
7:35 AM,48.2,35.6,62,29.54,10.0,WSW,4.6,-,N/A,,Clear,240,2012-10-30 11:35:00
7:55 AM,50.0,35.6,58,29.54,10.0,WSW,5.8,-,N/A,,Clear,240,2012-10-30 11:55:00
8:15 AM,50.0,35.6,58,29.55,10.0,WSW,5.8,-,N/A,,Clear,240,2012-10-30 12:15:00
8:35 AM,50.0,35.6,58,29.55,10.0,SW,4.6,-,N/A,,Clear,230,2012-10-30 12:35:00
8:55 AM,50.0,35.6,58,29.56,10.0,WSW,4.6,-,N/A,,Clear,240,2012-10-30 12:55:00
9:35 AM,51.8,35.6,54,29.56,10.0,SW,8.1,-,N/A,,Clear,230,2012-10-30 13:35:00
9:55 AM,51.8,35.6,54,29.57,10.0,WSW,6.9,-,N/A,,Clear,240,2012-10-30 13:55:00
10:15 AM,51.8,35.6,54,29.57,10.0,SW,6.9,-,N/A,,Clear,230,2012-10-30 14:15:00
10:35 AM,51.8,35.6,54,29.57,10.0,WSW,5.8,-,N/A,,Clear,240,2012-10-30 14:35:00
10:55 AM,51.8,35.6,54,29.57,10.0,WSW,9.2,-,N/A,,Clear,250,2012-10-30 14:55:00
11:35 AM,53.6,35.6,51,29.57,10.0,WSW,10.4,-,N/A,,Clear,240,2012-10-30 15:35:00
11:55 AM,53.6,35.6,51,29.57,7.0,WSW,8.1,-,N/A,,Clear,240,2012-10-30 15:55:00
12:15 PM,55.4,35.6,47,29.57,4.0,SW,9.2,17.3,N/A,,Haze,230,2012-10-30 16:15:00
12:55 PM,55.4,37.4,51,29.56,7.0,West,6.9,19.6,N/A,,Clear,260,2012-10-30 16:55:00
1:15 PM,57.2,37.4,48,29.55,5.0,SW,9.2,-,N/A,,Haze,230,2012-10-30 17:15:00
1:35 PM,59.0,37.4,45,29.55,5.0,SW,10.4,16.1,N/A,,Haze,230,2012-10-30 17:35:00
1:55 PM,59.0,39.2,48,29.54,5.0,WSW,9.2,16.1,N/A,,Haze,240,2012-10-30 17:55:00
2:15 PM,59.0,39.2,48,29.54,4.0,WSW,9.2,17.3,N/A,,Haze,250,2012-10-30 18:15:00
2:35 PM,59.0,39.2,48,29.54,7.0,WSW,12.7,23.0,N/A,,Clear,250,2012-10-30 18:35:00
2:55 PM,59.0,39.2,48,29.54,4.0,WSW,9.2,18.4,N/A,,Haze,250,2012-10-30 18:55:00
3:35 PM,59.0,37.4,45,29.55,-9999.0,West,11.5,18.4,N/A,,Clear,270,2012-10-30 19:35:00
3:55 PM,59.0,37.4,45,29.55,-9999.0,WSW,12.7,18.4,N/A,,Clear,240,2012-10-30 19:55:00
4:15 PM,60.8,37.4,42,29.55,-9999.0,WSW,15.0,19.6,N/A,,Clear,250,2012-10-30 20:15:00
4:35 PM,60.8,37.4,42,29.55,-9999.0,WSW,9.2,-,N/A,,Clear,250,2012-10-30 20:35:00
4:55 PM,60.8,37.4,42,29.56,-9999.0,WSW,12.7,17.3,N/A,,Clear,250,2012-10-30 20:55:00
5:35 PM,60.8,37.4,42,29.56,-9999.0,SW,6.9,-,N/A,,Clear,230,2012-10-30 21:35:00
5:55 PM,59.0,37.4,45,29.58,10.0,WSW,6.9,-,N/A,,Clear,250,2012-10-30 21:55:00
6:15 PM,59.0,35.6,42,29.59,7.0,WSW,5.8,-,N/A,,Clear,250,2012-10-30 22:15:00
6:35 PM,57.2,37.4,48,29.60,10.0,West,5.8,-,N/A,,Clear,260,2012-10-30 22:35:00
7:15 PM,55.4,35.6,47,29.63,10.0,West,12.7,18.4,N/A,,Clear,270,2012-10-30 23:15:00
7:35 PM,55.4,35.6,47,29.64,5.0,West,15.0,21.9,N/A,,Haze,260,2012-10-30 23:35:00
8:15 PM,55.4,35.6,47,29.66,5.0,West,12.7,19.6,N/A,,Haze,270,2012-10-31 00:15:00
8:35 PM,55.4,35.6,47,29.67,7.0,West,8.1,-,N/A,,Clear,260,2012-10-31 00:35:00
8:55 PM,55.4,35.6,47,29.67,10.0,WSW,8.1,-,N/A,,Clear,250,2012-10-31 00:55:00
9:15 PM,53.6,37.4,54,29.68,10.0,West,6.9,-,N/A,,Clear,260,2012-10-31 01:15:00
9:35 PM,53.6,37.4,54,29.69,10.0,West,6.9,-,N/A,,Clear,270,2012-10-31 01:35:00
9:55 PM,53.6,37.4,54,29.70,10.0,West,6.9,-,N/A,,Clear,260,2012-10-31 01:55:00
10:15 PM,53.6,37.4,54,29.71,10.0,West,4.6,-,N/A,,Clear,260,2012-10-31 02:15:00
10:35 PM,51.8,37.4,58,29.71,10.0,WSW,3.5,-,N/A,,Clear,240,2012-10-31 02:35:00
10:55 PM,51.8,37.4,58,29.71,10.0,WSW,3.5,-,N/A,,Clear,250,2012-10-31 02:55:00
11:15 PM,51.8,37.4,58,29.72,10.0,Calm,Calm,-,N/A,,Clear,0,2012-10-31 03:15:00
11:35 PM,51.8,39.2,62,29.72,10.0,Calm,Calm,-,N/A,,Clear,0,2012-10-31 03:35:00
11:55 PM,50.0,41.0,71,29.72,10.0,Calm,Calm,-,N/A,,Clear,0,2012-10-31 03:55:00